GFSNIL_sfc_30mbdewp_000.txt.gz
Dewpoint
34 34 35 35 35 35 35 34 37 35 32 32 33 31 32 29 27 28 26 25 26 28
28 26 27 30 32 34 36 36 36 32 34 35 35 31 30 28 26 27 26 27 28 28
23 26 28 31 31 33 35 35 35 34 34 32 29 29 28 27 26 27 28 29 27 22
26 27 27 27 31 32 33 34 33 31 32 30 28 30 25 24 24 27 27 22 20 19
27 27 27 27 29 31 30 30 30 31 32 32 28 25 23 23 25 23 20 18 19 18
27 28 28 28 27 28 28 29 30 32 30 27 23 22 23 24 23 19 18 19 19 18
28 29 30 30 30 30 31 32 31 28 28 22 20 22 23 21 19 19 20 20 19 19
29 30 30 31 32 33 33 33 31 31 22 19 21 22 20 19 20 20 20 19 20 20
29 30 30 31 32 33 34 30 23 17 19 21 21 24 26 27 27 25 22 23 24 23
29 29 29 31 32 32 32 30 27 21 22 22 27 28 28 27 23 22 21 18 17 17
29 28 30 30 31 31 31 30 23 22 23 24 23 24 25 23 20 19 17 16 17 17
28 28 29 30 30 29 30 27 22 22 21 15 18 21 19 19 19 18 17 17 17 17
28 28 28 29 27 27 21 20 21 19 17 16 15 17 16 17 17 15 17 19 17 17
27 27 27 25 24 19 21 21 19 18 16 14 15 15 16 16 16 15 18 17 17 18

GFSNIL_sfc_30mbdewp_003.txt.gz
Dewpoint
21 18 18 22 24 25 28 30 37 39 37 35 34 33 33 30 26 27 24 25 27 25
24 24 24 26 27 27 33 36 39 36 36 35 34 33 31 29 27 27 28 28 29 28
26 27 27 27 27 29 33 36 38 35 34 35 34 31 30 27 27 27 28 27 29 25
27 28 28 28 29 30 33 35 35 34 33 33 31 29 29 28 26 26 27 27 24 21
27 29 28 29 29 31 31 32 32 33 32 31 30 28 26 25 24 25 24 22 20 19
27 29 29 29 31 31 32 31 33 33 32 28 27 23 24 25 25 23 21 20 20 19
28 29 30 31 31 32 34 34 33 33 31 29 22 22 24 23 21 20 20 21 21 21
29 30 30 31 31 32 34 35 33 30 21 22 22 21 22 21 22 23 23 22 21 20
29 30 30 30 31 32 33 34 28 27 24 23 23 27 29 26 21 18 16 15 14 14
28 29 29 30 29 31 32 33 32 25 24 25 25 26 26 23 16 14 14 13 12 13
27 28 29 29 28 31 31 29 29 25 23 23 21 22 20 20 17 15 14 13 14 13
26 27 28 28 29 29 27 27 27 24 22 15 16 18 18 17 18 17 15 15 15 15
26 28 28 28 28 27 25 19 23 21 17 16 15 16 17 17 18 17 16 15 14 15
27 27 28 28 26 23 20 22 23 20 18 15 15 16 16 17 18 17 15 13 11 14

GFSNIL_sfc_30mbdewp_006.txt.gz
Dewpoint
19 19 18 21 23 21 21 24 29 34 37 38 35 33 35 34 30 26 23 21 21 21
24 26 26 26 24 23 24 26 31 37 37 37 34 36 32 28 26 24 21 21 20 19
25 26 26 25 24 24 26 28 31 34 36 34 34 31 28 25 22 21 19 18 19 18
26 26 26 25 24 25 27 27 29 32 34 33 29 28 29 23 20 19 19 19 19 19
26 26 26 25 25 27 28 28 29 30 31 30 28 28 23 20 20 19 19 19 19 18
24 26 26 25 26 27 28 30 31 30 30 28 26 23 20 21 21 21 21 20 20 19
25 26 27 27 26 27 29 30 30 30 30 29 24 21 22 21 22 21 21 22 21 21
25 27 27 27 26 27 30 30 30 28 25 24 24 21 23 24 24 22 19 18 16 14
24 26 27 25 27 26 26 28 28 29 29 27 23 29 27 20 17 17 16 13 13 13
23 25 24 24 24 24 25 27 26 27 28 27 27 27 23 21 17 17 14 13 12 12
23 22 22 22 24 24 25 25 23 23 26 26 23 21 20 19 18 16 14 14 14 14
18 20 20 21 24 25 25 23 22 24 25 24 20 18 18 18 18 18 17 15 14 14
20 20 20 22 25 26 25 24 21 22 23 18 19 17 17 17 19 19 18 16 11 12
20 21 23 25 26 26 25 23 25 24 22 20 19 19 17 17 19 19 17 15 13 11

GFSNIL_sfc_30mbdewp_009.txt.gz
Dewpoint
22 23 22 24 24 21 21 22 25 28 32 32 34 35 35 37 37 35 29 25 24 23
26 28 27 26 24 21 22 22 23 28 31 35 34 36 37 33 30 26 25 23 22 21
27 27 27 26 24 23 24 25 25 26 28 30 32 34 30 27 28 26 23 20 21 21
27 27 26 25 24 24 25 24 24 25 27 27 27 26 27 27 28 22 22 23 23 21
28 27 25 25 24 25 25 25 26 27 27 26 25 24 23 23 21 21 22 22 21 20
25 26 25 25 25 25 24 25 27 27 26 25 28 26 25 21 22 24 25 22 23 22
25 25 25 26 26 24 24 26 27 26 25 25 24 20 20 20 22 23 24 25 20 18
24 26 25 26 26 24 25 26 26 25 27 28 26 22 24 25 24 22 20 19 16 14
24 23 23 25 25 24 23 23 23 23 24 29 27 27 25 19 19 19 17 16 15 14
23 22 23 24 21 21 22 23 23 22 22 27 27 27 23 21 17 20 19 16 14 14
21 20 20 20 19 20 22 22 22 21 22 23 26 23 20 19 19 20 19 16 16 14
16 16 17 17 18 20 22 22 22 21 20 20 24 21 19 17 20 21 19 18 16 14
17 17 16 17 18 20 22 22 22 21 21 22 24 20 18 17 20 20 20 18 16 14
17 18 19 20 22 23 23 23 25 25 24 24 22 23 19 18 19 21 19 17 16 16

GFSNIL_sfc_30mbdewp_012.txt.gz
Dewpoint
28 27 28 28 26 25 25 26 26 31 32 34 37 35 37 38 39 38 37 32 31 28
30 30 29 28 26 25 26 25 27 29 30 33 34 36 38 38 36 33 31 29 29 25
31 32 30 28 26 25 27 27 28 28 29 30 33 36 35 33 31 30 31 29 28 29
30 31 30 28 26 26 27 27 27 27 28 28 28 28 29 29 27 30 27 28 28 29
32 30 29 27 26 26 26 27 27 28 28 29 28 28 29 28 26 27 30 31 27 27
31 31 28 27 27 27 27 26 27 28 29 28 27 29 29 27 25 25 28 27 27 26
29 28 28 27 28 28 26 26 28 29 29 27 26 25 25 24 27 27 26 26 24 21
27 28 28 28 28 28 27 27 27 27 28 28 30 28 26 26 23 23 21 21 20 18
25 26 27 27 29 29 28 27 25 25 26 26 30 26 24 20 20 21 21 21 19 18
26 27 28 28 26 25 24 26 25 26 25 24 30 27 23 18 18 20 23 21 19 17
27 28 26 23 23 23 24 25 26 25 24 25 28 26 22 17 18 22 23 20 19 18
29 20 19 20 21 21 23 24 25 25 23 24 26 24 20 17 20 24 22 21 20 18
28 22 21 23 22 24 25 25 25 25 24 23 26 24 21 18 21 22 22 22 19 18
28 24 23 24 26 27 26 27 28 26 26 26 26 23 22 20 19 22 22 20 19 21

GFSNIL_sfc_30mbdewp_015.txt.gz
Dewpoint
28 27 27 27 26 27 26 27 28 29 29 32 36 37 38 37 36 38 35 35 31 30
29 30 28 28 27 27 27 25 27 29 28 30 33 37 37 36 35 36 32 30 30 29
31 31 30 28 26 26 27 27 28 28 29 29 29 30 35 35 33 30 32 31 29 29
31 32 30 29 27 27 27 27 27 28 28 29 28 29 29 28 26 30 30 30 29 28
32 31 30 29 28 27 26 28 27 27 29 29 30 30 29 29 28 28 28 30 29 27
32 32 30 29 27 28 27 26 27 28 28 29 28 27 28 29 27 27 27 28 27 26
32 32 31 29 28 28 27 26 26 27 29 30 28 27 28 27 26 25 23 23 23 22
32 33 29 29 29 29 29 27 27 27 28 29 30 30 27 24 22 22 21 22 21 19
31 30 28 29 29 29 29 29 28 28 27 27 31 28 25 23 20 20 20 22 21 18
28 29 31 31 30 29 29 29 28 27 26 27 29 28 24 20 17 18 21 23 19 18
31 32 30 31 30 27 27 26 25 27 28 28 29 28 25 18 17 20 23 21 20 19
31 31 31 29 28 29 28 26 26 27 27 29 29 28 22 17 20 23 23 22 21 21
31 30 27 28 30 29 28 27 27 26 26 27 26 26 22 18 21 21 22 22 20 19
34 32 30 29 29 28 28 28 27 27 26 26 25 25 24 21 20 19 22 21 19 21

GFSNIL_sfc_30mbdewp_018.txt.gz
Dewpoint
28 27 26 27 27 27 27 27 30 29 30 32 37 37 38 36 35 37 36 34 34 31
30 29 28 28 28 27 28 28 28 29 29 30 30 35 37 36 35 35 34 31 31 29
31 30 29 28 27 28 28 27 28 28 28 29 29 29 32 32 32 29 31 32 29 29
30 30 29 27 28 28 27 28 27 28 28 28 29 30 29 29 28 29 30 30 29 28
33 32 30 28 29 28 27 28 27 27 27 29 29 30 29 28 29 29 28 29 29 28
33 31 30 30 29 29 28 27 27 26 27 28 30 30 29 29 29 28 29 30 28 26
33 32 31 30 29 28 28 27 26 27 27 29 30 29 28 27 26 26 24 23 22 21
33 34 33 30 29 29 29 28 27 27 28 28 30 30 29 27 25 23 22 22 21 20
35 33 31 30 30 29 30 30 30 29 30 29 29 30 30 27 23 21 20 20 22 18
32 31 32 31 30 31 31 32 31 31 31 29 29 29 30 26 21 19 20 23 20 18
33 32 33 32 31 32 32 29 28 27 28 29 29 30 28 23 20 19 21 23 20 20
33 31 32 33 33 32 31 29 28 27 28 27 29 30 27 20 18 20 22 23 22 21
33 33 34 34 34 33 29 28 28 28 27 28 28 30 26 20 21 20 22 22 22 20
36 37 36 34 32 29 28 29 28 28 29 27 27 28 26 23 20 20 20 22 21 21

GFSNIL_sfc_30mbdewp_021.txt.gz
Dewpoint
38 34 28 27 28 28 28 28 30 31 31 38 37 37 38 37 35 36 36 35 34 32
34 32 28 28 29 28 29 29 30 30 31 31 32 35 37 37 35 35 35 33 31 31
34 32 30 29 28 28 29 30 30 30 29 29 29 30 32 34 32 29 29 31 30 29
34 33 31 29 29 30 30 30 29 29 28 28 29 30 29 28 27 28 29 30 30 29
35 33 30 29 32 31 28 29 29 28 28 29 29 30 30 29 29 29 29 29 29 28
32 31 31 33 31 30 29 29 28 27 27 27 29 30 30 29 29 29 29 29 29 28
33 32 33 30 30 30 30 29 28 28 28 28 29 30 30 29 28 28 28 29 29 27
36 35 32 32 31 31 30 28 28 28 29 30 30 29 29 28 27 27 26 24 23 21
36 34 34 32 31 31 31 30 30 32 32 31 31 30 30 29 27 26 23 21 22 21
37 34 32 31 32 32 33 36 36 33 30 28 30 30 30 32 27 24 22 21 22 21
33 33 33 32 33 34 36 35 33 31 29 29 29 29 30 31 25 22 21 22 22 20
34 33 34 35 36 37 36 35 31 29 28 28 28 29 31 28 22 21 20 23 22 21
35 37 37 38 37 36 34 30 29 29 29 29 28 29 31 26 22 21 21 23 23 25
38 38 38 37 37 34 30 29 28 27 28 29 29 28 31 28 22 23 22 22 21 22

GFSNIL_sfc_30mbdewp_024.txt.gz
Dewpoint
47 44 41 36 32 31 29 30 31 31 33 37 39 38 38 37 36 36 36 34 34 32
46 44 39 37 33 32 29 31 33 31 32 38 37 37 37 37 36 35 35 35 34 32
44 43 40 36 32 31 32 32 31 31 31 31 32 33 36 36 36 34 34 33 32 30
42 42 38 34 32 32 32 31 31 30 31 30 30 31 30 31 30 28 27 29 30 30
40 37 34 32 31 31 31 32 31 30 30 30 30 30 30 29 28 28 28 28 30 29
39 35 33 31 32 33 32 31 30 30 29 29 29 30 31 31 29 29 29 29 29 28
40 36 34 33 34 32 31 30 29 29 29 29 30 31 30 30 30 29 29 29 29 29
39 36 34 33 32 32 31 30 29 30 29 33 35 30 30 30 29 29 28 29 29 28
37 35 34 33 32 31 30 30 29 31 37 38 33 31 31 31 30 28 27 26 24 22
37 35 34 32 31 31 32 36 37 38 38 33 31 30 30 31 32 29 27 25 23 22
35 34 33 33 35 36 37 38 38 38 35 31 29 29 29 29 31 29 27 24 22 22
34 35 35 36 37 38 39 38 37 36 31 31 30 29 29 30 30 27 25 23 23 23
37 38 38 38 38 38 37 36 33 32 31 29 28 29 30 31 28 25 23 22 23 25
39 39 39 38 38 37 35 34 31 28 28 28 28 28 28 30 27 25 24 23 23 23

GFSNIL_sfc_30mbdewp_027.txt.gz
Dewpoint
49 47 47 44 40 37 37 37 37 37 37 39 41 40 39 37 37 38 36 35 34 33
51 50 48 46 42 41 38 36 37 35 35 39 40 40 40 38 38 38 38 37 37 36
52 51 49 45 42 40 37 34 35 34 36 38 39 39 39 38 38 37 37 36 35 35
51 50 48 45 43 39 36 36 35 33 35 35 34 34 34 34 35 36 35 33 31 31
51 49 46 44 41 38 37 36 33 34 32 31 31 32 31 32 30 32 30 30 31 30
48 46 45 44 41 38 35 34 33 32 30 31 31 31 33 33 32 31 31 30 30 30
46 44 43 41 37 35 35 33 32 31 30 32 32 33 36 35 32 32 32 32 31 31
45 43 40 36 35 35 33 32 32 32 32 35 37 39 39 35 32 32 31 32 32 31
42 39 37 36 35 34 33 32 31 32 37 40 40 39 37 33 31 31 31 30 31 30
39 37 36 35 34 32 32 34 37 40 39 38 40 36 32 31 30 31 30 30 30 28
37 36 34 34 36 38 39 40 39 38 38 38 35 32 34 31 30 30 30 30 30 29
35 35 36 37 39 39 39 39 38 38 38 34 35 37 31 30 30 30 29 29 28 28
37 37 38 38 39 39 39 38 38 36 35 36 36 32 30 30 30 30 30 29 27 26
38 38 39 39 38 37 36 35 34 32 32 31 31 30 30 29 30 30 29 28 27 26

GFSNIL_sfc_30mbdewp_030.txt.gz
Dewpoint
56 55 53 51 48 46 43 42 41 40 41 37 41 41 42 43 38 37 34 34 34 29
56 55 53 51 49 48 44 42 42 43 40 39 42 42 44 40 37 35 36 36 35 32
56 55 54 52 49 46 44 42 41 40 38 41 42 44 41 37 36 35 36 35 32 31
57 56 53 52 50 48 47 43 40 39 41 41 42 39 37 35 31 36 34 34 31 29
57 55 54 53 52 49 47 41 39 41 39 35 36 34 33 30 31 33 35 31 30 27
55 54 53 51 49 46 42 41 41 38 33 33 32 30 32 33 36 39 35 30 28 28
52 52 51 50 48 46 43 41 37 35 33 33 30 29 34 39 40 39 34 31 31 30
50 49 48 47 46 44 42 38 35 34 34 33 33 38 41 40 39 36 32 32 31 31
46 44 43 41 39 37 35 34 34 33 36 38 40 40 40 39 38 35 32 31 30 29
42 41 40 38 35 34 33 35 34 37 37 38 38 40 38 36 34 36 35 32 30 28
40 38 36 35 35 36 37 38 38 39 37 36 37 39 35 37 37 37 31 29 27 26
37 37 37 36 37 38 37 37 37 37 37 37 39 36 37 38 33 29 28 27 27 26
37 37 37 38 38 38 38 38 38 38 37 37 37 37 36 32 31 29 28 28 27 27
37 38 38 38 38 37 36 36 35 34 32 31 31 30 31 31 30 30 30 29 28 28

GFSNIL_sfc_30mbdewp_033.txt.gz
Dewpoint
57 57 57 57 55 53 50 48 50 49 47 43 43 44 45 45 44 45 44 40 34 35
57 58 57 58 56 53 49 50 49 46 44 43 43 45 45 45 45 44 42 37 37 37
58 57 58 57 55 52 50 48 45 44 43 42 44 45 45 45 45 42 37 38 39 37
58 58 58 57 54 52 50 47 45 45 44 43 43 43 43 45 40 36 36 37 38 36
59 57 56 55 54 53 52 50 48 45 43 43 41 42 42 40 35 34 36 42 40 37
58 57 56 55 55 54 52 49 44 42 42 41 41 40 41 37 32 39 41 40 39 34
55 55 54 54 52 50 45 42 41 42 41 40 38 36 33 37 40 41 41 41 39 34
53 52 51 51 50 49 46 44 42 39 38 36 35 35 36 40 41 40 40 40 36 34
48 47 47 46 44 43 42 40 37 36 35 35 36 41 40 40 38 39 39 38 36 36
44 43 42 40 39 37 36 36 36 36 37 37 40 39 39 38 37 37 37 38 39 37
41 40 39 37 36 35 35 35 35 35 34 35 36 38 38 37 37 38 38 39 35 29
39 38 37 37 38 38 37 37 37 36 35 36 37 39 37 37 38 35 32 30 28 27
38 38 38 38 38 39 39 39 38 39 39 38 38 37 37 35 31 30 30 29 29 29
38 38 38 38 38 38 37 37 37 35 32 31 30 30 32 31 31 30 28 29 30 31

GFSNIL_sfc_30mbdewp_036.txt.gz
Dewpoint
55 56 56 56 58 57 56 53 51 50 49 50 49 47 46 45 45 45 45 46 46 44
58 57 58 58 58 58 55 51 50 51 51 49 47 45 45 45 45 46 46 46 45 40
58 58 60 59 58 57 52 50 51 51 49 46 44 46 45 45 46 46 45 44 40 40
58 57 56 59 59 54 53 52 50 49 47 44 44 45 44 44 44 44 43 40 41 40
59 60 59 58 56 55 53 52 49 47 45 44 45 44 43 43 42 42 40 41 40 40
59 58 57 56 55 54 53 52 50 47 45 44 43 42 42 43 43 41 41 41 40 39
58 57 56 56 54 49 46 44 44 44 43 43 43 42 42 43 42 41 41 40 39 40
56 55 55 53 51 48 45 43 42 42 42 42 41 41 40 40 41 39 38 39 40 40
52 51 51 50 50 48 45 44 42 41 40 39 38 36 40 40 39 38 39 39 39 39
46 45 44 43 42 41 40 39 38 38 38 39 39 39 39 38 38 38 37 37 38 38
43 42 40 38 37 37 37 37 37 37 37 38 39 39 38 37 38 38 38 38 38 38
40 39 38 37 37 38 37 37 37 36 36 36 38 38 38 38 38 37 35 33 32 32
39 39 39 40 40 39 39 37 37 39 39 38 39 38 34 33 32 31 29 28 28 28
39 40 39 38 39 38 38 38 38 37 37 36 33 30 26 25 25 22 22 23 23 24

GFSNIL_sfc_30mbdewp_042.txt.gz
Dewpoint
52 53 54 52 50 55 56 57 58 58 57 56 53 51 51 49 48 47 47 46 46 47
53 54 54 53 53 55 57 57 58 57 56 54 52 51 50 48 47 47 47 47 47 46
53 54 55 55 55 56 56 56 56 55 53 52 51 50 49 48 47 46 46 46 45 45
53 54 55 56 56 56 56 56 55 53 51 50 49 49 48 47 46 46 45 45 45 44
56 57 57 58 57 57 57 57 56 53 52 50 48 47 46 46 46 45 43 43 43 42
57 58 58 59 58 58 57 57 53 53 51 49 48 47 45 45 45 44 43 43 42 41
57 58 58 58 57 57 55 53 52 50 49 48 46 45 44 44 43 43 43 42 41 41
56 58 57 55 54 53 52 51 50 49 47 45 45 44 43 43 43 42 42 42 40 39
56 55 53 51 50 49 48 47 46 45 44 44 43 43 43 43 42 41 41 39 39 38
53 52 50 49 47 45 44 43 43 43 43 42 42 42 42 42 41 39 38 37 36 38
49 48 48 45 43 41 41 40 40 40 40 39 39 40 40 38 37 36 37 37 33 30
44 43 42 41 40 38 38 37 38 38 38 37 38 38 37 36 36 34 30 27 26 25
39 39 38 38 37 37 37 37 37 37 37 37 37 37 37 36 31 27 23 22 21 22
39 38 37 37 37 37 37 36 36 34 31 29 29 28 27 25 23 21 19 17 18 21

GFSNIL_sfc_30mbdewp_045.txt.gz
Dewpoint
48 47 47 48 51 52 52 53 55 56 57 57 57 55 54 53 51 50 48 46 46 46
48 48 49 50 52 53 53 55 56 57 57 58 58 56 54 53 51 49 48 47 47 47
50 50 50 53 54 54 53 56 56 57 57 56 55 54 54 52 50 48 48 48 48 47
51 51 53 54 54 55 55 56 56 56 55 55 54 51 50 49 48 47 47 47 47 46
53 54 54 55 56 56 56 57 56 55 55 52 51 50 49 48 47 47 46 46 46 44
54 55 55 55 56 56 57 57 57 57 55 52 51 49 48 47 47 47 46 45 44 43
55 55 55 56 56 56 57 57 56 55 53 52 50 49 47 47 46 45 45 44 43 42
55 56 57 57 57 57 57 57 54 53 51 49 48 47 46 45 44 44 43 43 42 41
55 56 57 56 55 54 53 52 51 49 47 47 46 46 44 44 43 43 42 41 40 40
55 55 54 52 51 49 48 47 47 46 46 45 44 43 43 43 42 41 41 40 37 37
53 51 49 48 47 45 45 45 44 43 43 43 43 42 42 41 39 38 37 37 35 30
50 48 47 45 44 42 42 41 41 41 41 41 40 40 39 38 36 32 29 27 26 25
47 46 44 42 40 38 38 38 38 37 37 37 37 37 36 35 31 28 24 22 22 23
43 42 40 38 37 37 37 36 34 32 31 31 31 32 32 30 28 25 21 19 19 19

GFSNIL_sfc_30mbdewp_051.txt.gz
Dewpoint
51 51 50 50 49 50 50 50 51 52 53 53 54 55 56 56 56 56 55 54 52 51
51 50 50 50 50 50 50 50 51 52 52 54 54 55 55 55 55 55 55 55 53 52
51 51 51 51 50 50 50 51 51 52 53 53 54 55 55 56 56 56 55 54 53 52
51 51 51 50 50 50 50 50 50 51 52 53 54 55 56 56 56 55 55 55 53 52
51 51 51 50 50 51 50 50 51 51 52 53 54 55 56 56 55 54 53 53 51 51
50 51 50 50 51 51 51 52 52 52 53 53 53 55 56 55 54 52 53 52 51 50
50 50 51 51 51 51 51 51 52 53 53 54 54 55 54 54 54 53 52 51 49 48
49 49 49 51 52 52 52 52 53 53 54 55 55 55 54 53 51 50 48 47 47 46
49 49 50 50 51 52 52 52 54 54 54 55 55 54 51 51 50 49 46 44 43 43
50 51 51 51 51 52 52 53 55 55 55 55 54 50 48 48 48 46 44 42 40 38
52 52 52 53 53 54 54 55 55 54 52 50 48 46 45 44 43 42 41 40 38 35
53 53 54 54 53 51 50 48 46 46 45 44 42 41 41 40 37 35 34 33 32 31
54 52 52 50 47 44 43 40 38 38 39 38 37 38 37 35 33 30 29 29 28 27
51 49 45 43 41 39 36 34 33 32 31 33 35 35 34 33 31 28 26 24 23 25

GFSNIL_sfc_30mbdewp_054.txt.gz
Dewpoint
54 53 52 51 49 48 48 49 51 51 52 52 52 52 53 53 54 54 55 55 55 53
54 54 52 51 51 50 49 49 50 51 51 50 50 51 52 52 52 53 54 54 55 55
54 54 54 53 52 51 52 52 51 52 53 52 52 52 52 53 52 52 54 54 55 56
53 53 54 54 53 53 53 52 52 52 52 52 52 52 52 53 53 53 54 56 56 55
53 53 53 53 53 54 53 53 53 52 52 51 51 51 51 52 52 52 53 54 56 55
53 53 53 53 53 52 52 52 52 51 51 50 50 50 52 53 53 53 53 55 55 53
52 53 53 53 52 53 52 51 51 51 50 50 50 51 51 52 53 53 54 54 55 54
52 52 51 51 51 51 52 51 51 50 50 51 51 52 52 52 54 54 54 54 54 53
51 51 51 51 51 51 51 51 51 51 50 51 52 53 53 55 55 54 54 51 49 48
50 50 50 51 50 50 51 52 51 51 51 52 52 53 53 53 54 53 51 48 44 42
49 49 50 50 50 50 51 52 52 53 53 54 54 53 52 49 49 47 45 43 41 39
50 50 50 51 51 53 53 54 53 52 53 52 47 45 44 44 41 39 37 37 36 34
51 51 51 52 54 51 48 43 40 39 40 40 39 39 39 38 35 32 31 30 31 32
52 53 54 49 45 41 38 36 34 33 33 34 35 35 35 35 33 30 29 28 28 29

GFSNIL_sfc_30mbdewp_057.txt.gz
Dewpoint
55 54 53 53 52 52 52 53 55 55 55 56 57 57 56 56 56 55 56 56 54 55
55 54 53 53 53 52 52 52 54 55 56 56 56 56 56 56 55 55 56 56 56 55
55 54 54 53 53 53 52 52 52 54 54 54 54 55 55 54 54 54 54 54 54 54
55 56 56 55 55 54 54 53 51 51 52 52 52 53 53 52 52 52 53 53 53 53
56 56 56 56 56 56 54 54 53 51 51 51 51 52 52 52 51 52 52 52 53 53
55 55 55 56 56 56 56 55 54 53 52 51 52 52 52 52 52 52 52 53 53 53
54 54 55 56 56 56 56 55 55 54 53 53 53 52 52 51 52 52 52 54 53 53
53 54 54 55 55 55 55 54 54 54 54 54 53 52 52 51 51 52 53 53 54 54
52 53 54 54 54 55 55 54 54 53 53 53 53 51 50 51 52 52 52 53 54 54
52 52 53 54 53 53 54 54 53 53 53 53 53 51 49 50 52 54 55 55 55 52
51 52 52 53 53 53 53 53 53 53 53 53 53 51 50 50 53 54 54 54 51 45
50 50 51 51 52 53 53 53 53 54 54 53 53 50 50 49 47 43 41 40 40 39
49 49 50 51 52 53 53 52 46 43 42 41 42 42 44 44 39 36 33 32 33 33
49 49 51 51 52 50 44 39 36 34 34 34 35 36 36 36 34 31 30 29 29 30

GFSNIL_sfc_30mbdewp_060.txt.gz
Dewpoint
55 54 53 51 50 50 49 51 53 55 54 55 55 55 57 57 57 56 56 54 53 55
55 54 54 53 52 51 51 52 55 56 55 55 55 56 57 57 56 56 56 55 56 55
55 55 55 54 54 53 52 51 52 55 56 55 54 56 57 57 56 55 55 55 55 55
54 54 55 54 54 54 53 53 52 52 53 54 56 56 56 55 55 55 54 54 54 55
55 55 55 55 54 54 54 54 53 52 52 53 53 54 54 54 54 54 53 54 53 53
56 56 55 55 55 55 54 55 54 52 51 51 52 53 53 53 53 52 52 52 51 52
56 56 56 56 56 56 56 55 54 54 53 52 51 51 51 51 51 51 52 52 52 52
54 56 56 56 56 56 56 56 56 55 54 53 53 51 51 51 51 52 52 52 52 53
51 53 55 55 56 56 56 56 56 56 55 55 54 52 51 52 53 52 52 52 52 52
52 52 53 54 55 55 55 56 56 55 55 55 55 53 51 50 52 52 52 52 52 52
53 53 53 54 54 54 55 55 55 55 55 55 54 53 52 50 51 52 52 53 54 54
51 52 53 53 53 54 54 55 55 55 55 54 54 50 50 48 49 47 42 39 40 41
44 51 52 52 53 54 54 54 53 45 42 43 43 45 48 47 43 39 34 32 32 33
49 51 51 52 53 53 50 42 38 36 34 34 35 36 39 40 37 33 31 30 29 31

GFSNIL_sfc_30mbdewp_063.txt.gz
Dewpoint
54 53 51 50 52 52 51 52 54 55 52 53 55 55 55 55 55 56 55 54 55 54
55 53 52 50 50 50 49 50 53 55 54 53 53 55 55 56 55 56 56 56 55 54
55 55 54 53 51 49 49 49 49 54 55 54 53 54 56 55 56 56 55 55 55 55
55 55 54 54 53 52 51 49 49 52 55 55 55 53 54 55 55 55 54 55 55 54
55 55 55 54 54 54 52 51 50 49 52 54 54 54 53 53 55 55 55 54 54 54
54 54 54 55 55 53 54 53 53 52 50 50 51 53 54 54 54 54 55 54 54 54
54 54 53 54 54 54 54 54 53 53 52 52 51 52 51 52 54 55 54 54 54 54
55 55 54 54 54 54 54 54 54 54 53 53 52 51 52 52 52 52 52 52 53 53
55 56 55 55 55 55 55 55 55 53 54 54 53 51 49 51 51 51 51 51 52 52
53 54 55 56 56 55 55 56 55 55 55 54 54 53 51 49 50 51 51 51 51 52
51 52 53 54 55 56 56 56 56 55 55 56 56 54 53 50 50 52 52 53 53 53
48 47 48 52 54 54 55 55 55 56 56 56 56 54 53 51 51 52 45 41 42 46
44 43 44 46 48 54 54 54 55 52 46 45 49 45 49 48 49 42 36 33 34 36
38 39 40 42 43 51 53 47 43 39 36 36 37 38 41 44 44 39 33 31 31 32

GFSNIL_sfc_30mbdewp_066.txt.gz
Dewpoint
54 52 52 53 53 53 52 51 52 52 52 52 52 51 52 55 53 52 52 52 53 52
54 53 51 51 52 52 53 53 53 53 52 53 54 54 53 51 53 55 54 53 54 53
54 54 53 51 51 52 52 52 52 55 54 53 53 54 55 55 54 53 54 55 55 54
55 55 54 53 51 50 51 50 50 53 54 54 53 53 53 54 55 55 54 54 55 55
55 55 55 54 53 52 50 50 49 49 53 54 54 53 52 51 51 54 54 54 54 54
55 55 55 55 54 54 53 51 51 49 48 50 54 54 54 53 52 52 54 54 54 53
54 54 54 54 54 54 54 53 52 51 50 49 48 51 53 53 53 52 52 53 54 54
54 54 54 54 54 54 54 54 53 53 53 52 51 49 49 50 50 51 52 53 53 54
55 55 55 54 54 54 54 54 54 53 53 53 53 52 50 50 50 50 50 52 53 54
45 49 54 55 55 54 54 54 54 54 54 53 53 52 51 50 51 51 52 51 51 51
42 45 45 46 49 55 55 54 54 54 54 54 54 53 51 50 50 51 51 52 52 52
39 39 40 42 43 45 46 53 55 55 55 55 54 54 51 50 52 52 52 51 50 50
33 34 36 38 39 42 43 44 50 56 56 55 55 53 51 51 54 53 52 41 39 41
29 29 32 33 35 39 40 40 41 43 36 36 35 37 39 45 51 50 41 36 33 33

GFSNIL_sfc_30mbdewp_069.txt.gz
Dewpoint
54 54 54 54 54 55 55 54 53 54 55 55 55 55 55 55 54 54 51 49 49 48
54 53 53 53 53 54 54 53 52 53 54 55 55 54 54 55 54 54 51 49 51 51
54 53 52 52 52 52 53 53 53 52 52 53 54 54 53 52 51 53 52 52 51 52
54 54 53 51 51 52 52 52 52 54 53 52 53 53 52 51 51 51 52 53 53 53
55 54 54 53 52 51 51 52 51 52 54 54 52 52 52 53 53 54 53 52 52 52
55 55 54 54 54 53 51 51 51 51 50 52 53 53 52 51 51 51 53 54 54 53
55 55 55 55 55 54 53 52 51 50 50 50 50 52 53 53 52 51 51 50 51 52
54 55 55 55 55 55 54 53 53 52 51 50 49 49 49 51 52 52 51 51 51 52
45 50 52 55 55 55 55 54 54 53 53 52 52 50 49 48 48 49 51 51 51 51
40 42 42 44 45 52 54 54 54 54 54 53 53 52 50 49 50 49 49 50 50 50
35 36 37 39 41 41 44 46 49 54 54 54 54 53 51 50 51 52 51 51 51 51
31 31 33 35 35 37 41 42 43 45 46 51 54 54 51 49 51 52 52 53 52 52
27 29 30 31 32 34 37 39 40 38 34 33 33 35 35 39 50 52 52 52 52 39
26 27 28 29 30 32 34 35 33 31 30 29 29 31 33 36 42 47 50 41 33 32

GFSNIL_sfc_30mbdewp_072.txt.gz
Dewpoint
54 54 55 55 55 56 56 56 56 56 56 56 56 56 55 54 53 53 51 50 51 49
54 54 54 55 55 56 56 56 55 55 56 56 56 56 56 55 55 55 54 53 53 51
54 53 53 54 54 54 55 55 53 54 55 55 56 56 56 55 55 55 55 55 54 53
54 53 52 52 53 53 53 53 52 52 53 54 55 55 55 54 54 54 54 54 53 52
54 54 53 52 51 52 52 52 53 53 52 52 53 54 54 53 52 52 52 53 52 51
54 54 53 53 53 51 52 52 52 52 53 53 52 52 53 53 52 51 51 51 50 51
54 54 54 54 54 53 52 51 51 51 51 51 53 53 53 52 52 52 52 53 52 51
50 55 55 55 55 55 54 53 52 51 51 51 51 51 51 52 52 52 51 51 51 51
41 43 44 45 47 54 55 55 54 53 52 51 51 50 49 49 50 51 51 51 51 51
35 36 37 40 41 42 43 45 47 51 54 54 53 53 50 48 49 50 49 49 49 50
31 32 34 35 35 37 39 42 43 44 44 43 40 34 34 37 48 51 51 51 51 51
29 30 31 31 33 34 36 39 39 36 35 32 32 32 34 35 39 48 51 52 53 52
28 28 29 29 31 33 35 35 34 30 29 28 29 30 32 34 38 41 45 49 34 33
26 27 27 28 29 30 31 29 29 27 27 27 28 28 29 31 33 36 31 29 29 29

GFSNIL_sfc_30mbdewp_075.txt.gz
Dewpoint
56 56 56 56 56 56 57 56 57 58 57 57 56 55 54 53 52 52 52 52 52 51
55 55 55 56 56 56 57 57 56 57 57 57 57 56 55 54 53 52 52 52 53 52
55 55 55 55 55 56 57 57 56 56 56 56 57 57 56 55 55 54 54 54 53 53
55 55 55 54 55 55 56 55 55 55 56 56 56 56 56 56 56 55 54 54 53 53
55 55 54 54 54 55 54 55 54 54 55 55 55 56 56 55 55 55 55 54 54 54
53 53 53 54 53 54 54 54 54 53 53 53 54 54 55 55 55 55 54 54 54 54
54 54 54 54 54 53 53 53 53 53 53 53 53 53 53 54 54 54 53 53 53 53
46 47 50 52 54 55 54 53 53 53 53 53 53 54 53 53 53 53 53 53 53 53
38 40 41 43 45 46 46 48 52 53 52 52 48 37 40 47 53 53 53 52 53 53
34 35 36 37 38 40 42 43 44 43 43 40 34 33 35 36 43 49 51 52 52 52
32 32 33 34 36 37 40 41 38 36 34 35 32 32 33 34 40 44 47 50 51 51
29 30 31 32 34 36 37 36 32 31 30 30 30 30 31 33 37 41 43 35 32 32
28 29 29 30 32 32 31 30 29 28 28 28 28 28 29 32 36 36 33 29 28 29
25 27 28 28 29 29 28 28 27 27 27 26 27 26 27 27 28 27 25 24 24 26

GFSNIL_sfc_30mbdewp_078.txt.gz
Dewpoint
57 57 56 56 56 57 57 58 59 57 56 55 54 54 54 54 54 54 53 53 53 52
57 57 56 57 57 56 57 57 58 58 58 57 55 54 53 53 52 53 54 53 54 53
55 56 56 56 55 54 56 56 57 57 57 57 57 56 55 53 53 53 52 53 53 53
53 54 55 55 54 55 56 57 56 56 57 57 57 56 56 55 53 53 53 53 53 52
54 54 55 54 55 55 55 56 56 56 56 56 56 57 56 56 55 54 52 52 53 53
53 54 54 54 54 55 55 55 55 55 55 56 56 56 56 56 56 56 56 55 53 53
53 54 54 54 54 54 54 54 54 54 54 54 54 55 56 55 55 56 55 55 55 55
44 46 47 49 49 53 54 54 54 54 54 54 48 38 43 53 54 55 54 54 55 54
39 40 41 42 43 45 46 47 45 45 43 40 36 34 35 38 48 52 53 53 53 54
36 36 37 39 40 42 42 40 38 38 38 34 32 32 33 33 38 44 48 50 48 50
33 35 36 38 39 40 37 35 34 33 33 32 30 30 31 33 39 43 37 32 33 35
31 32 34 35 35 35 34 32 31 30 30 31 29 29 30 37 42 35 31 29 29 30
29 30 31 32 32 32 31 30 29 29 29 28 28 27 28 32 33 30 28 26 26 26
28 29 29 30 30 30 29 29 29 28 27 26 26 26 26 27 28 26 25 24 24 25

GFSNIL_sfc_30mbdewp_081.txt.gz
Dewpoint
54 55 55 56 56 57 57 58 58 57 57 57 57 58 58 57 56 56 55 54 54 53
54 54 55 56 57 58 58 58 58 57 56 56 56 56 57 57 56 56 56 55 54 54
55 55 56 57 56 56 56 56 58 58 57 56 55 55 55 55 55 54 54 55 54 54
55 55 56 56 55 55 56 56 57 57 58 57 56 55 54 53 53 52 52 53 53 53
54 54 55 54 54 55 55 56 56 56 56 57 57 57 56 55 53 52 51 52 52 52
54 55 54 54 55 55 55 55 56 56 56 56 56 57 56 56 55 54 53 53 53 52
53 54 54 54 55 56 56 55 55 55 55 55 55 53 55 56 56 56 56 56 55 53
45 46 47 48 50 52 50 50 50 53 46 41 38 36 39 46 54 56 56 56 56 56
41 42 43 44 45 43 42 42 42 39 37 36 34 33 34 36 47 51 51 51 49 50
39 40 41 42 40 39 37 37 36 36 34 31 31 32 33 34 41 41 37 36 37 39
37 38 39 39 37 36 35 34 34 34 32 30 30 31 34 38 38 34 31 30 31 32
34 35 35 35 35 34 33 32 31 31 31 29 28 29 33 38 34 31 29 28 28 28
31 32 32 33 33 32 32 31 30 29 28 29 27 28 30 32 31 29 27 27 26 26
30 31 31 32 32 31 31 30 29 28 27 26 27 26 27 29 29 28 27 26 25 26

GFSNIL_sfc_30mbdewp_084.txt.gz
Dewpoint
57 56 56 57 58 58 57 57 58 58 58 58 59 58 58 57 58 57 56 54 54 53
56 56 57 57 58 58 58 58 58 57 57 57 58 59 58 57 57 57 56 55 54 54
56 55 56 57 58 58 59 58 58 57 56 56 57 57 58 57 57 57 56 56 55 54
55 56 57 57 57 56 57 58 58 58 56 56 56 56 56 56 56 56 55 54 54 54
55 56 57 56 56 56 56 57 57 58 57 56 55 55 55 54 54 54 54 54 54 54
55 55 55 55 55 56 56 56 56 57 57 57 56 55 55 54 54 53 52 52 52 52
52 53 53 55 55 56 56 56 56 54 48 47 44 45 49 55 55 54 54 53 53 53
47 48 49 48 47 47 47 45 45 42 40 38 36 35 38 45 53 56 55 55 55 49
43 44 43 42 41 40 40 39 37 35 35 35 34 34 35 39 48 43 43 41 41 41
42 40 39 38 37 37 36 35 34 33 32 32 33 35 38 38 36 34 33 34 34 34
39 39 38 36 35 34 34 34 33 32 31 30 32 37 35 34 32 30 29 29 30 30
36 37 36 35 35 34 33 32 31 31 30 29 30 33 35 33 30 29 28 28 28 28
34 34 34 34 33 32 31 30 29 27 28 28 28 30 31 31 29 27 26 26 27 27
33 33 32 32 32 31 30 29 28 27 26 26 27 28 29 30 29 27 25 25 25 25

GFSNIL_sfc_30mbdewp_087.txt.gz
Dewpoint
57 56 57 58 58 57 57 56 57 58 59 59 59 59 59 59 58 58 57 56 55 54
56 56 57 58 58 57 57 57 57 58 58 58 58 58 58 58 57 57 57 57 56 55
56 56 58 59 58 58 58 57 57 57 57 57 58 58 57 56 57 57 57 57 56 55
56 57 58 58 59 59 58 57 57 57 56 56 57 57 58 57 56 57 56 56 56 55
55 56 57 57 57 58 58 59 58 57 56 56 56 56 56 56 56 56 55 55 55 54
57 57 57 57 57 57 57 57 58 58 57 56 56 55 56 56 56 56 55 55 55 54
53 53 53 54 55 55 56 52 49 47 46 46 46 49 54 55 54 55 54 54 54 54
48 47 47 47 46 45 44 43 42 40 40 39 39 38 45 51 54 54 52 51 44 41
43 42 41 41 40 40 38 37 36 35 36 37 37 37 41 44 42 42 41 41 40 37
39 38 37 37 37 36 35 34 34 34 34 36 36 36 36 35 34 33 33 34 34 33
37 37 36 35 34 34 33 32 31 31 32 34 35 34 33 32 31 30 29 30 30 31
36 35 34 34 33 32 31 30 30 30 30 31 33 33 32 30 29 28 28 29 29 29
34 35 34 33 32 31 30 29 28 28 29 30 31 32 32 29 27 26 26 27 28 29
32 32 33 33 32 30 29 28 27 27 27 28 29 30 29 28 27 26 25 25 26 27

GFSNIL_sfc_30mbdewp_090.txt.gz
Dewpoint
57 57 57 57 58 58 58 58 59 59 60 60 60 60 60 60 59 59 57 56 56 55
57 56 57 58 58 58 57 57 57 57 58 59 59 59 59 59 58 58 58 57 57 56
57 57 57 58 57 57 57 57 57 57 57 57 58 58 58 58 58 57 57 57 57 56
57 57 58 58 58 57 57 57 57 56 57 57 57 58 57 57 57 57 57 57 56 56
57 58 58 58 58 58 57 57 57 57 56 56 57 57 57 56 57 56 56 56 56 56
57 57 57 57 58 58 58 57 57 57 56 56 56 56 56 57 56 56 56 56 55 55
54 54 54 54 54 54 52 51 50 49 49 50 51 54 56 56 56 56 56 56 56 55
48 48 48 47 46 44 43 42 42 42 42 41 42 43 50 55 55 54 48 45 43 41
43 42 41 41 40 39 38 38 38 38 39 39 38 39 43 47 45 44 42 39 38 38
38 38 37 37 36 35 34 35 35 36 35 34 34 35 35 36 36 36 36 36 36 36
35 35 34 34 33 32 32 32 32 34 34 33 32 33 32 32 31 30 30 31 33 34
33 32 32 30 30 30 30 30 30 31 32 32 32 31 31 30 29 29 29 30 31 33
32 32 31 30 29 29 29 28 28 29 30 31 31 31 30 29 28 27 28 29 30 30
31 31 31 31 30 29 28 27 27 27 28 29 30 30 31 29 27 27 27 27 28 30

GFSNIL_sfc_30mbdewp_093.txt.gz
Dewpoint
58 57 57 57 57 57 57 57 58 58 59 60 60 60 60 59 59 59 58 57 56 55
57 57 57 57 57 57 57 58 58 59 59 59 60 60 60 59 59 59 58 57 56 54
57 57 57 57 57 57 57 57 57 58 58 58 58 58 59 58 59 58 58 57 56 56
57 57 57 57 57 57 57 57 56 56 56 55 57 57 57 57 57 57 57 57 56 56
57 57 57 57 57 57 57 57 57 56 56 56 57 57 57 56 57 56 56 56 56 56
57 58 58 58 57 57 57 57 57 57 56 56 56 56 56 56 56 57 56 56 56 55
57 57 56 56 56 55 54 53 52 51 51 51 52 55 56 56 56 56 56 56 56 56
47 49 49 49 47 46 45 45 45 44 43 42 43 43 48 55 55 51 49 47 46 46
39 40 40 41 40 40 39 39 40 39 38 38 37 38 45 50 47 45 44 41 38 38
35 35 35 35 35 35 36 36 36 35 34 33 34 35 36 38 39 38 37 38 37 35
33 32 32 32 32 32 33 33 33 33 32 32 32 33 33 33 33 33 33 34 36 34
33 32 31 30 29 30 30 30 30 32 31 31 31 32 31 31 31 30 30 32 33 32
31 31 30 29 29 29 29 28 28 29 30 31 30 31 31 30 29 29 29 29 30 31
29 30 30 30 29 29 28 27 27 27 28 29 29 30 30 29 29 28 28 28 29 30

GFSNIL_sfc_30mbdewp_096.txt.gz
Dewpoint
58 58 58 58 58 58 59 59 60 59 59 58 60 60 59 59 59 59 58 58 57 56
58 57 57 58 58 58 58 57 58 58 58 59 60 59 59 59 59 59 58 58 57 56
58 57 57 57 57 57 57 57 56 57 58 59 59 59 59 59 59 59 59 58 56 56
57 57 57 57 57 56 56 57 57 57 58 58 58 58 58 58 58 58 58 58 57 55
57 57 57 57 56 56 56 57 57 57 56 56 55 56 56 56 56 56 56 57 57 55
57 57 57 56 56 56 56 56 56 55 55 55 56 56 56 56 56 56 56 57 56 55
46 57 57 57 57 56 56 55 54 53 51 51 52 53 55 56 56 56 56 56 56 56
39 41 46 51 49 48 48 47 46 45 43 43 43 42 45 52 55 54 50 47 45 48
35 36 36 39 41 41 40 40 39 38 38 37 36 38 44 50 48 46 45 42 40 39
34 33 33 33 35 36 36 36 35 34 34 33 34 35 37 39 39 38 38 38 37 36
33 33 33 32 31 32 32 32 32 32 32 32 32 33 34 34 34 34 34 34 34 33
31 31 31 31 30 30 29 29 30 30 31 31 31 32 32 32 31 30 31 32 32 32
29 29 28 29 29 30 29 29 29 29 29 30 30 32 31 31 30 29 29 30 31 31
27 28 28 28 28 28 28 28 27 27 28 29 30 31 31 30 29 28 28 28 28 30

GFSNIL_sfc_30mbdewp_099.txt.gz
Dewpoint
61 61 61 61 57 57 57 59 60 60 61 61 60 60 60 60 59 60 59 58 58 57
60 59 59 61 61 59 60 60 60 60 60 60 59 59 59 59 59 59 59 59 58 58
59 59 59 59 59 59 59 59 59 60 59 59 59 60 60 58 59 59 59 59 58 58
58 58 58 58 58 58 58 58 58 58 58 58 59 59 59 59 59 58 58 58 58 57
58 58 58 57 58 58 57 57 56 56 57 57 58 58 58 58 58 58 57 57 57 57
45 55 57 57 57 57 56 56 56 57 56 57 56 56 56 56 57 57 56 57 57 57
40 41 47 57 57 57 56 56 57 56 55 55 54 55 56 56 56 56 57 56 56 57
37 37 38 43 44 54 53 51 49 47 45 44 44 43 48 52 55 56 52 48 47 45
35 35 35 35 38 38 42 41 41 40 39 39 38 38 43 50 49 47 45 43 41 40
34 34 34 33 33 33 34 35 34 34 34 34 35 36 38 41 40 39 38 37 37 37
31 32 33 33 32 32 31 32 32 32 33 33 33 34 34 35 35 34 33 33 34 34
29 28 30 31 31 31 30 29 30 31 31 31 32 33 33 33 32 31 31 32 32 32
28 27 27 28 29 30 30 28 29 29 30 31 31 32 32 31 31 29 29 30 30 31
27 27 27 27 28 28 27 27 27 26 27 27 29 30 31 30 29 28 27 27 27 28

GFSNIL_sfc_30mbdewp_102.txt.gz
Dewpoint
57 56 60 59 60 60 61 61 62 60 57 56 59 60 61 61 61 60 60 59 59 59
60 60 61 61 61 60 61 60 59 58 59 60 61 61 61 61 60 60 60 59 59 58
60 61 60 61 61 59 59 59 59 59 60 61 61 61 61 60 60 59 59 59 59 59
59 60 60 60 60 60 60 60 60 60 60 59 60 60 60 59 59 58 58 59 59 59
46 53 59 59 59 60 60 60 60 60 59 59 59 59 59 58 58 58 58 58 58 58
40 43 46 57 59 59 58 58 57 57 57 58 59 58 58 59 58 59 58 58 58 58
38 39 40 44 52 57 57 57 57 57 57 57 57 58 57 57 57 57 57 57 57 57
36 37 37 37 39 43 51 56 55 52 51 50 50 46 51 55 57 57 56 53 49 46
33 35 36 35 34 35 36 39 43 44 44 41 38 38 43 49 52 50 49 46 43 41
31 32 33 34 34 33 33 33 34 37 36 35 35 37 40 43 43 41 39 39 39 39
29 29 30 32 32 32 32 31 31 32 34 33 33 34 35 35 36 35 34 34 35 35
28 28 28 28 30 31 31 30 29 30 32 32 32 33 33 33 32 31 31 32 33 32
29 28 28 29 28 29 28 27 27 26 28 30 31 32 32 31 31 29 29 29 30 31
29 29 29 30 30 30 28 27 26 25 25 26 28 29 30 30 29 28 27 27 27 28

GFSNIL_sfc_30mbdewp_105.txt.gz
Dewpoint
45 48 51 53 55 57 60 62 62 63 62 62 61 59 61 62 62 62 61 60 60 60
44 48 55 57 57 59 61 61 62 63 62 63 62 62 62 61 61 61 61 61 60 60
43 47 56 57 58 59 60 61 61 62 61 60 58 59 60 60 60 61 61 61 60 59
41 44 49 58 58 58 59 60 59 60 60 59 59 58 58 58 59 60 60 59 59 59
38 41 44 47 55 59 59 60 59 59 59 59 59 59 57 56 57 58 58 58 59 58
36 39 40 41 45 59 59 60 60 59 58 59 59 60 59 57 55 59 58 58 58 58
34 36 38 39 40 41 48 59 60 59 59 58 58 59 59 59 59 58 59 59 59 58
32 34 36 37 37 37 37 39 49 56 54 56 54 55 58 58 58 58 58 56 53 50
31 31 32 34 35 35 35 34 35 39 42 42 40 42 50 56 55 54 53 49 46 44
30 30 30 31 32 33 33 33 32 33 34 35 36 40 45 46 44 42 41 41 40 40
30 30 30 29 29 29 30 31 31 30 31 33 33 35 37 37 36 35 34 34 35 36
30 30 30 29 28 28 27 27 27 28 29 30 31 33 33 33 32 31 30 31 32 33
31 31 30 30 30 30 29 27 26 25 27 28 29 31 31 31 30 29 28 29 29 30
30 30 31 32 31 31 31 30 28 26 25 26 27 28 29 29 28 27 26 26 27 28

GFSNIL_sfc_30mbdewp_108.txt.gz
Dewpoint
39 41 43 45 47 49 52 55 58 60 62 63 63 62 62 60 61 60 59 59 60 60
39 41 43 45 47 51 53 55 59 63 63 63 62 62 60 58 58 55 59 56 55 60
38 40 42 45 47 53 56 58 60 62 62 62 62 62 59 58 59 61 61 61 60 59
36 38 40 41 43 45 49 57 59 61 62 61 62 62 61 60 60 60 60 60 59 59
34 36 37 38 41 44 44 51 58 60 60 61 60 60 60 60 59 59 57 56 58 58
32 33 35 36 38 40 41 44 52 57 58 60 59 58 58 58 58 56 55 56 56 58
31 32 33 34 36 37 38 39 41 51 58 59 59 59 57 56 55 54 55 57 57 58
31 31 31 32 33 34 36 36 36 38 41 43 47 47 55 58 56 53 53 57 55 51
31 31 30 30 30 30 32 33 34 33 35 36 37 36 44 58 58 57 55 51 47 44
31 31 31 30 29 28 28 29 30 32 32 31 32 34 37 46 45 43 41 42 42 41
31 31 31 30 29 28 27 26 26 28 30 30 31 32 33 35 36 34 33 33 35 36
31 30 31 30 30 30 28 26 25 26 26 27 29 31 32 32 31 30 29 30 31 31
31 29 29 30 30 31 31 29 28 26 26 27 26 29 30 30 29 27 27 28 28 29
28 28 28 28 30 30 30 29 28 27 28 28 28 27 28 27 26 26 25 25 26 27

GFSNIL_sfc_30mbdewp_111.txt.gz
Dewpoint
37 38 38 41 42 43 44 47 49 51 54 56 60 61 61 60 59 59 60 59 59 59
36 37 37 39 41 43 46 48 51 51 53 52 55 56 60 58 59 57 55 55 60 59
35 35 36 38 40 41 43 46 49 54 54 56 51 54 59 59 60 59 57 55 57 58
33 34 35 36 37 39 40 43 46 49 58 58 58 58 58 60 59 58 57 58 57 55
32 33 33 34 35 37 38 40 42 47 54 58 57 55 59 59 58 58 58 58 57 55
32 32 31 32 33 34 35 37 38 42 44 50 57 58 60 60 60 59 59 59 58 58
32 32 31 31 30 31 32 33 35 37 39 41 43 46 49 59 59 57 56 57 56 54
31 32 30 29 29 28 29 30 32 33 34 35 36 35 38 46 57 55 55 55 54 53
31 31 31 29 28 27 27 27 28 29 31 32 33 34 34 41 56 54 53 50 45 44
30 31 31 30 29 28 27 26 26 27 28 29 31 33 33 33 39 42 42 43 42 40
29 29 30 30 30 30 29 28 27 27 26 27 29 32 32 31 31 30 31 32 34 35
28 27 27 27 29 30 28 27 27 27 27 26 27 29 30 31 28 28 27 29 31 31
26 25 25 25 27 28 28 27 26 26 26 27 28 30 28 27 27 25 26 27 28 30
25 23 22 23 24 24 24 23 24 24 24 25 27 28 30 28 25 25 24 25 26 28

GFSNIL_sfc_30mbdewp_114.txt.gz
Dewpoint
35 36 36 36 37 38 40 42 44 45 48 49 51 52 56 60 60 58 58 58 57 55
34 34 35 35 37 38 39 40 41 43 45 47 52 52 54 59 59 59 58 58 58 58
33 34 34 35 35 36 37 38 39 41 43 47 51 53 54 55 58 58 57 57 58 58
31 32 33 33 33 34 35 36 37 38 41 45 48 56 54 53 56 58 57 57 57 58
31 31 31 31 31 32 32 34 35 36 38 41 42 47 58 55 55 57 57 57 56 55
30 30 30 29 30 30 30 30 31 34 35 36 38 39 44 56 57 57 57 57 56 55
30 30 30 29 29 28 29 28 29 30 32 33 35 35 37 42 52 56 58 58 58 57
30 31 30 30 31 29 28 28 28 28 29 31 33 33 34 41 47 51 54 58 56 57
29 29 30 30 29 29 27 27 28 27 28 29 30 33 33 36 36 36 40 49 47 45
28 28 28 29 29 29 28 26 26 27 28 28 29 31 33 32 31 31 31 32 35 39
26 26 27 27 27 26 28 26 26 26 27 28 30 30 29 31 32 30 29 30 30 31
23 22 23 23 24 25 24 24 25 25 25 26 28 31 29 27 28 28 28 28 30 29
24 22 20 20 22 23 22 21 21 22 23 25 26 31 30 29 27 25 26 27 28 29
24 23 22 20 19 20 20 20 20 20 21 23 24 27 29 30 27 26 25 25 26 27

GFSNIL_sfc_30mbdewp_120.txt.gz
Dewpoint
33 33 33 33 33 33 34 34 36 36 38 39 40 42 44 46 48 50 52 52 52 57
32 32 32 32 32 32 32 33 33 34 35 37 38 39 42 43 45 48 51 52 53 57
32 32 31 31 30 30 31 31 32 32 33 35 36 37 38 39 41 43 46 53 53 55
31 31 31 31 30 30 30 30 31 31 32 32 33 34 35 36 37 38 42 51 53 55
30 30 29 28 28 28 28 29 29 30 31 31 31 32 33 34 35 37 40 44 52 54
29 28 28 28 27 27 27 27 28 29 30 31 31 31 31 33 34 36 38 41 45 54
28 27 28 27 27 27 26 26 26 27 29 31 31 30 30 31 32 32 33 35 37 39
25 25 25 25 24 25 25 25 25 26 27 29 30 30 29 29 29 29 30 30 32 34
22 22 22 22 23 22 22 23 24 24 25 27 28 31 29 28 27 27 27 27 28 30
21 20 20 20 20 20 21 21 22 23 24 25 27 28 28 28 27 26 26 26 27 27
21 20 20 19 19 19 20 20 22 21 21 22 25 26 26 26 26 26 26 26 27 27
21 20 20 19 19 19 19 19 20 21 21 21 21 23 24 23 23 23 23 24 26 27
21 20 19 19 19 20 19 19 19 19 20 21 21 21 21 22 22 21 21 22 23 25
22 20 19 18 19 20 19 17 17 16 17 18 20 19 19 19 20 20 20 20 21 23

GFSNIL_sfc_30mbdewp_123.txt.gz
Dewpoint
33 33 32 32 32 32 32 33 33 34 35 36 37 38 39 41 43 45 47 49 51 52
31 32 32 31 31 31 32 32 32 33 33 34 35 36 37 38 40 41 42 45 47 51
31 31 30 30 29 30 30 30 31 32 32 33 33 34 35 36 37 38 40 41 44 48
30 30 30 29 28 28 29 29 29 30 32 32 32 33 33 34 36 37 39 41 43 46
29 29 28 28 27 27 27 27 28 29 31 31 31 32 32 33 34 35 35 37 39 41
27 27 27 26 26 26 26 26 26 28 29 31 31 30 30 30 30 31 32 33 34 35
24 25 25 25 24 25 25 25 25 26 27 30 30 30 29 29 29 29 29 30 31 31
21 22 22 22 22 22 23 24 24 24 25 28 28 29 29 28 28 27 27 28 28 29
20 20 20 20 21 21 21 22 21 22 22 24 25 26 26 27 27 26 26 26 27 27
21 20 21 20 20 20 21 21 21 21 21 22 23 23 24 25 26 25 25 25 26 26
20 20 20 20 20 20 20 20 20 20 21 21 22 20 21 23 25 25 25 24 26 26
19 19 19 20 20 19 19 18 19 19 19 20 21 19 19 20 22 22 23 23 24 24
18 19 19 20 20 20 17 17 16 16 17 18 19 17 17 19 19 18 20 20 21 21
19 17 18 18 19 19 16 15 15 14 16 16 17 17 15 15 17 17 16 17 18 20

GFSNIL_sfc_30mbdewp_126.txt.gz
Dewpoint
33 33 33 33 32 33 33 33 33 34 35 36 36 37 38 39 41 43 43 44 45 48
32 32 31 31 31 31 32 31 32 33 34 34 34 35 36 37 38 39 41 42 43 44
31 30 31 30 30 30 30 30 31 32 32 32 33 33 34 35 37 37 38 40 42 43
30 30 29 29 29 29 30 30 30 30 31 31 31 32 32 32 33 33 34 35 37 39
29 29 29 29 28 28 29 29 28 29 30 30 30 30 31 30 31 31 31 31 33 33
27 27 27 27 27 27 28 27 27 27 28 28 29 29 30 30 29 29 30 30 30 30
24 24 24 24 24 25 25 25 25 26 26 27 27 27 28 29 29 28 29 30 29 29
21 22 22 22 22 23 23 22 22 23 23 24 23 25 26 28 28 27 27 28 28 29
21 21 21 22 22 22 21 22 21 22 22 21 19 21 24 26 26 26 25 25 26 27
22 21 21 21 21 21 21 21 21 21 21 21 20 20 21 23 25 25 25 24 24 24
20 21 21 20 20 21 21 21 20 19 20 20 20 18 19 21 23 24 23 24 23 24
20 20 20 20 20 20 20 19 19 18 18 18 18 16 16 19 22 22 21 22 22 20
19 19 19 20 19 19 19 19 18 18 17 17 17 15 14 17 17 18 17 18 19 16
18 18 19 19 19 18 18 17 17 17 17 16 16 15 14 12 14 16 15 14 15 15